カタログに戻る

OPS 6431

運用中ナビゲーションLEO
NORAD 8818·PAYLOAD·🇺🇸 United States

打ち上げ Apr 30, 1976 から Vandenberg Space Force Base

Loading…

次のパス (今後24時間)

TLE

最新Source: Space-Track

元期: Sep 14, 2026, 05:08 UTC

1 08818U 76038A   26257.21425424 -.00000027  00000-0  39640-4 0  9991
2 08818  63.3582 188.3464 0348370 184.2013 175.6096 13.91700808119611

AllMySatでOPS 6431をリアルタイム追跡

Download on the App Store